owner,sensor,date,latitude,longitude,vertical_datum,direction_of_sea_water_velocity,sea_water_speed,upward_sea_water_velocity,qcFlag 
TABS,ioos:station:wmo:42051:1,2008-04-01T00:00:00Z,29.6350,-93.6417,2.0,298.9431544,16.92371709,-99999.0,'11111222,11111222,99999999' 
TABS,ioos:station:wmo:42051:1,2008-04-01T00:30:00Z,29.6350,-93.6417,2.0,315.5506305,19.8776885,-99999.0,'11111222,11111222,99999999' 
TABS,ioos:station:wmo:42051:1,2008-04-01T01:00:00Z,29.6350,-93.6417,2.0,287.5290749,18.39410775,-99999.0,'11111222,11111222,99999999' 
TABS,ioos:station:wmo:42051:1,2008-04-01T01:30:00Z,29.6350,-93.6417,2.0,289.7140873,15.44524846,-99999.0,'11111222,11111222,99999999' 
TABS,ioos:station:wmo:42051:1,2008-04-01T02:00:00Z,29.6350,-93.6417,2.0,284.1554527,17.54263948,-99999.0,'11111222,11111222,99999999' 
TABS,ioos:station:wmo:42051:1,2008-04-01T02:30:00Z,29.6350,-93.6417,2.0,270.7989148,14.35139366,-99999.0,'11111222,11111222,99999999' 
TABS,ioos:station:wmo:42051:1,2008-04-01T03:00:00Z,29.6350,-93.6417,2.0,268.3184285,14.3161622,-99999.0,'11111222,11111222,99999999' 
TABS,ioos:station:wmo:42051:1,2008-04-01T03:30:00Z,29.6350,-93.6417,2.0,271.9971644,11.76714494,-99999.0,'11111222,11111222,99999999' 
TABS,ioos:station:wmo:42051:1,2008-04-01T04:00:00Z,29.6350,-93.6417,2.0,256.6621964,12.52789687,-99999.0,'11111222,11111222,99999999' 
TABS,ioos:station:wmo:42051:1,2008-04-01T04:30:00Z,29.6350,-93.6417,2.0,263.6675639,15.50458642,-99999.0,'11111222,11111222,99999999' 
TABS,ioos:station:wmo:42051:1,2008-04-01T05:00:00Z,29.6350,-93.6417,2.0,255.0550869,14.07611097,-99999.0,'11111222,11111222,99999999' 
TABS,ioos:station:wmo:42051:1,2008-04-01T05:30:00Z,29.6350,-93.6417,2.0,248.9621173,17.54976923,-99999.0,'11111222,11111222,99999999' 
TABS,ioos:station:wmo:42051:1,2008-04-01T06:00:00Z,29.6350,-93.6417,2.0,263.6665605,17.67787883,-99999.0,'11111222,11111222,99999999' 
TABS,ioos:station:wmo:42051:1,2008-04-01T06:30:00Z,29.6350,-93.6417,2.0,255.9198885,25.56811295,-99999.0,'11111222,11111222,99999999' 
TABS,ioos:station:wmo:42051:1,2008-04-01T07:00:00Z,29.6350,-93.6417,2.0,258.7748646,52.759221,-99999.0,'11111222,11111222,99999999' 
TABS,ioos:station:wmo:42051:1,2008-04-01T07:30:00Z,29.6350,-93.6417,2.0,267.1302662,57.93262984,-99999.0,'11111222,11111222,99999999' 
TABS,ioos:station:wmo:42051:1,2008-04-01T08:00:00Z,29.6350,-93.6417,2.0,279.3538963,77.03421642,-99999.0,'11111222,11111222,99999999' 
TABS,ioos:station:wmo:42051:1,2008-04-01T08:30:00Z,29.6350,-93.6417,2.0,279.2243819,80.22739993,-99999.0,'11111222,11111222,99999999' 
TABS,ioos:station:wmo:42051:1,2008-04-01T09:00:00Z,29.6350,-93.6417,2.0,275.1413444,71.75866359,-99999.0,'11111222,11111222,99999999' 
TABS,ioos:station:wmo:42051:1,2008-04-01T09:30:00Z,29.6350,-93.6417,2.0,269.4767436,65.75273759,-99999.0,'11111222,11111222,99999999' 
TABS,ioos:station:wmo:42051:1,2008-04-01T10:00:00Z,29.6350,-93.6417,2.0,276.8934781,76.90588664,-99999.0,'11111222,11111222,99999999' 
TABS,ioos:station:wmo:42051:1,2008-04-01T10:30:00Z,29.6350,-93.6417,2.0,277.0016721,76.95380952,-99999.0,'11111222,11111222,99999999' 
TABS,ioos:station:wmo:42051:1,2008-04-01T11:00:00Z,29.6350,-93.6417,2.0,276.1790221,69.31262295,-99999.0,'11111222,11111222,99999999' 
TABS,ioos:station:wmo:42051:1,2008-04-01T11:30:00Z,29.6350,-93.6417,2.0,273.9794888,65.13701559,-99999.0,'11111222,11111222,99999999' 
TABS,ioos:station:wmo:42051:1,2008-04-01T12:00:00Z,29.6350,-93.6417,2.0,272.4799522,69.57514068,-99999.0,'11111222,11111222,99999999' 
TABS,ioos:station:wmo:42051:1,2008-04-01T12:30:00Z,29.6350,-93.6417,2.0,272.245296,65.0999616,-99999.0,'11111222,11111222,99999999' 
TABS,ioos:station:wmo:42051:1,2008-04-01T13:00:00Z,29.6350,-93.6417,2.0,271.121919,62.33194045,-99999.0,'11111222,11111222,99999999' 
TABS,ioos:station:wmo:42051:1,2008-04-01T13:30:00Z,29.6350,-93.6417,2.0,270.8670586,61.48703359,-99999.0,'11111222,11111222,99999999' 
TABS,ioos:station:wmo:42051:1,2008-04-01T14:00:00Z,29.6350,-93.6417,2.0,271.7746822,54.90632386,-99999.0,'11111222,11111222,99999999' 
TABS,ioos:station:wmo:42051:1,2008-04-01T14:30:00Z,29.6350,-93.6417,2.0,276.3299481,47.52972964,-99999.0,'11111222,11111222,99999999' 
TABS,ioos:station:wmo:42051:1,2008-04-01T15:00:00Z,29.6350,-93.6417,2.0,277.1322285,52.19381668,-99999.0,'11111222,11111222,99999999' 
TABS,ioos:station:wmo:42051:1,2008-04-01T15:30:00Z,29.6350,-93.6417,2.0,280.1562382,58.81146997,-99999.0,'11111222,11111222,99999999' 
TABS,ioos:station:wmo:42051:1,2008-04-01T16:00:00Z,29.6350,-93.6417,2.0,286.2504226,49.60160078,-99999.0,'11111222,11111222,99999999' 
TABS,ioos:station:wmo:42051:1,2008-04-01T16:30:00Z,29.6350,-93.6417,2.0,288.2747351,50.77056726,-99999.0,'11111222,11111222,99999999' 
TABS,ioos:station:wmo:42051:1,2008-04-01T17:00:00Z,29.6350,-93.6417,2.0,282.0386664,53.84411296,-99999.0,'11111222,11111222,99999999' 
TABS,ioos:station:wmo:42051:1,2008-04-01T17:30:00Z,29.6350,-93.6417,2.0,282.0212374,47.10287677,-99999.0,'11111222,11111222,99999999' 
TABS,ioos:station:wmo:42051:1,2008-04-01T18:00:00Z,29.6350,-93.6417,2.0,276.212888,41.12148952,-99999.0,'11111222,11111222,99999999' 
TABS,ioos:station:wmo:42051:1,2008-04-01T18:30:00Z,29.6350,-93.6417,2.0,268.961728,35.8858872,-99999.0,'11111222,11111222,99999999' 
TABS,ioos:station:wmo:42051:1,2008-04-01T19:00:00Z,29.6350,-93.6417,2.0,268.8126362,32.82704373,-99999.0,'11111222,11111222,99999999' 
TABS,ioos:station:wmo:42051:1,2008-04-01T19:30:00Z,29.6350,-93.6417,2.0,268.647963,48.753565,-99999.0,'11111222,11111222,99999999' 
TABS,ioos:station:wmo:42051:1,2008-04-01T20:00:00Z,29.6350,-93.6417,2.0,272.2383954,49.16750248,-99999.0,'11111222,11111222,99999999' 
TABS,ioos:station:wmo:42051:1,2008-04-01T20:30:00Z,29.6350,-93.6417,2.0,270.6524255,41.30267425,-99999.0,'11111222,11111222,99999999' 
TABS,ioos:station:wmo:42051:1,2008-04-01T21:00:00Z,29.6350,-93.6417,2.0,284.3525244,59.82717192,-99999.0,'11111222,11111222,99999999' 
TABS,ioos:station:wmo:42051:1,2008-04-01T21:30:00Z,29.6350,-93.6417,2.0,287.8898061,50.81694304,-99999.0,'11111222,11111222,99999999' 
TABS,ioos:station:wmo:42051:1,2008-04-01T22:00:00Z,29.6350,-93.6417,2.0,280.3264482,60.41856089,-99999.0,'11111222,11111222,99999999' 
TABS,ioos:station:wmo:42051:1,2008-04-01T22:30:00Z,29.6350,-93.6417,2.0,268.2971107,71.02135031,-99999.0,'11111222,11111222,99999999' 
TABS,ioos:station:wmo:42051:1,2008-04-01T23:00:00Z,29.6350,-93.6417,2.0,262.046322,64.61148273,-99999.0,'11111222,11111222,99999999' 
TABS,ioos:station:wmo:42051:1,2008-04-01T23:30:00Z,29.6350,-93.6417,2.0,260.47265,71.41496552,-99999.0,'11111222,11111222,99999999' 
TABS,ioos:station:wmo:42051:1,2008-04-02T00:00:00Z,29.6350,-93.6417,2.0,253.5697671,64.17028128,-99999.0,'11111222,11111222,99999999' 
TABS,ioos:station:wmo:42051:1,2008-04-02T00:30:00Z,29.6350,-93.6417,2.0,250.3380232,54.50802235,-99999.0,'11111222,11111222,99999999' 
TABS,ioos:station:wmo:42051:1,2008-04-02T01:00:00Z,29.6350,-93.6417,2.0,247.7929515,57.49457192,-99999.0,'11111222,11111222,99999999' 
TABS,ioos:station:wmo:42051:1,2008-04-02T01:30:00Z,29.6350,-93.6417,2.0,255.3146184,56.76425107,-99999.0,'11111222,11111222,99999999' 
TABS,ioos:station:wmo:42051:1,2008-04-02T02:00:00Z,29.6350,-93.6417,2.0,261.5734165,53.36606131,-99999.0,'11111222,11111222,99999999' 
TABS,ioos:station:wmo:42051:1,2008-04-02T02:30:00Z,29.6350,-93.6417,2.0,262.708177,58.93659305,-99999.0,'11111222,11111222,99999999' 
TABS,ioos:station:wmo:42051:1,2008-04-02T03:00:00Z,29.6350,-93.6417,2.0,268.5467401,60.73952585,-99999.0,'11111222,11111222,99999999' 
TABS,ioos:station:wmo:42051:1,2008-04-02T03:30:00Z,29.6350,-93.6417,2.0,266.0718039,65.69430417,-99999.0,'11111222,11111222,99999999' 
TABS,ioos:station:wmo:42051:1,2008-04-02T04:00:00Z,29.6350,-93.6417,2.0,267.2728274,60.95901984,-99999.0,'11111222,11111222,99999999' 
TABS,ioos:station:wmo:42051:1,2008-04-02T04:30:00Z,29.6350,-93.6417,2.0,261.1611434,59.94178009,-99999.0,'11111222,11111222,99999999' 
TABS,ioos:station:wmo:42051:1,2008-04-02T05:00:00Z,29.6350,-93.6417,2.0,259.2451644,57.44903829,-99999.0,'11111222,11111222,99999999' 
TABS,ioos:station:wmo:42051:1,2008-04-02T05:30:00Z,29.6350,-93.6417,2.0,255.7037895,56.21063334,-99999.0,'11111222,11111222,99999999' 
TABS,ioos:station:wmo:42051:1,2008-04-02T06:00:00Z,29.6350,-93.6417,2.0,255.5988939,53.759109,-99999.0,'11111222,11111222,99999999' 
TABS,ioos:station:wmo:42051:1,2008-04-02T06:30:00Z,29.6350,-93.6417,2.0,256.6910636,56.90829816,-99999.0,'11111222,11111222,99999999' 
TABS,ioos:station:wmo:42051:1,2008-04-02T07:00:00Z,29.6350,-93.6417,2.0,254.2215562,57.84964823,-99999.0,'11111222,11111222,99999999' 
TABS,ioos:station:wmo:42051:1,2008-04-02T07:30:00Z,29.6350,-93.6417,2.0,256.9083903,57.79197349,-99999.0,'11111222,11111222,99999999' 
TABS,ioos:station:wmo:42051:1,2008-04-02T08:00:00Z,29.6350,-93.6417,2.0,257.0475904,52.42375988,-99999.0,'11111222,11111222,99999999' 
TABS,ioos:station:wmo:42051:1,2008-04-02T08:30:00Z,29.6350,-93.6417,2.0,251.7099226,51.14368094,-99999.0,'11111222,11111222,99999999' 
TABS,ioos:station:wmo:42051:1,2008-04-02T09:00:00Z,29.6350,-93.6417,2.0,251.2850499,52.48494737,-99999.0,'11111222,11111222,99999999' 
TABS,ioos:station:wmo:42051:1,2008-04-02T09:30:00Z,29.6350,-93.6417,2.0,246.306529,50.96586407,-99999.0,'11111222,11111222,99999999' 
TABS,ioos:station:wmo:42051:1,2008-04-02T10:00:00Z,29.6350,-93.6417,2.0,248.8256232,52.74063803,-99999.0,'11111222,11111222,99999999' 
TABS,ioos:station:wmo:42051:1,2008-04-02T10:30:00Z,29.6350,-93.6417,2.0,253.7411246,53.54120002,-99999.0,'11111222,11111222,99999999' 
TABS,ioos:station:wmo:42051:1,2008-04-02T11:00:00Z,29.6350,-93.6417,2.0,256.1652344,52.31768439,-99999.0,'11111222,11111222,99999999' 
TABS,ioos:station:wmo:42051:1,2008-04-02T11:30:00Z,29.6350,-93.6417,2.0,255.583001,53.33961005,-99999.0,'11111222,11111222,99999999' 
TABS,ioos:station:wmo:42051:1,2008-04-02T12:00:00Z,29.6350,-93.6417,2.0,257.9120898,44.2204161,-99999.0,'11111222,11111222,99999999' 
TABS,ioos:station:wmo:42051:1,2008-04-02T12:30:00Z,29.6350,-93.6417,2.0,264.8267009,50.57598739,-99999.0,'11111222,11111222,99999999' 
TABS,ioos:station:wmo:42051:1,2008-04-02T13:00:00Z,29.6350,-93.6417,2.0,257.6360585,50.76736156,-99999.0,'11111222,11111222,99999999' 
TABS,ioos:station:wmo:42051:1,2008-04-02T13:30:00Z,29.6350,-93.6417,2.0,260.1276003,51.50258731,-99999.0,'11111222,11111222,99999999' 
TABS,ioos:station:wmo:42051:1,2008-04-02T14:00:00Z,29.6350,-93.6417,2.0,262.762847,52.15546472,-99999.0,'11111222,11111222,99999999' 
TABS,ioos:station:wmo:42051:1,2008-04-02T14:30:00Z,29.6350,-93.6417,2.0,265.215408,57.9117691,-99999.0,'11111222,11111222,99999999' 
TABS,ioos:station:wmo:42051:1,2008-04-02T15:00:00Z,29.6350,-93.6417,2.0,254.5546838,57.71424261,-99999.0,'11111222,11111222,99999999' 
TABS,ioos:station:wmo:42051:1,2008-04-02T15:30:00Z,29.6350,-93.6417,2.0,259.2978132,60.42090118,-99999.0,'11111222,11111222,99999999' 
TABS,ioos:station:wmo:42051:1,2008-04-02T16:00:00Z,29.6350,-93.6417,2.0,257.118077,56.2044927,-99999.0,'11111222,11111222,99999999' 
TABS,ioos:station:wmo:42051:1,2008-04-02T16:30:00Z,29.6350,-93.6417,2.0,259.7221316,65.52127136,-99999.0,'11111222,11111222,99999999' 
TABS,ioos:station:wmo:42051:1,2008-04-02T17:00:00Z,29.6350,-93.6417,2.0,262.3467755,70.28602422,-99999.0,'11111222,11111222,99999999' 
TABS,ioos:station:wmo:42051:1,2008-04-02T17:30:00Z,29.6350,-93.6417,2.0,258.209754,67.19762868,-99999.0,'11111222,11111222,99999999' 
TABS,ioos:station:wmo:42051:1,2008-04-02T18:00:00Z,29.6350,-93.6417,2.0,259.344078,68.68435047,-99999.0,'11111222,11111222,99999999' 
TABS,ioos:station:wmo:42051:1,2008-04-02T18:30:00Z,29.6350,-93.6417,2.0,257.6675398,67.2824628,-99999.0,'11111222,11111222,99999999' 
TABS,ioos:station:wmo:42051:1,2008-04-02T19:00:00Z,29.6350,-93.6417,2.0,256.618524,67.45114158,-99999.0,'11111222,11111222,99999999' 
TABS,ioos:station:wmo:42051:1,2008-04-02T19:30:00Z,29.6350,-93.6417,2.0,254.3563724,66.42025068,-99999.0,'11111222,11111222,99999999' 
TABS,ioos:station:wmo:42051:1,2008-04-02T20:00:00Z,29.6350,-93.6417,2.0,254.783355,65.95214705,-99999.0,'11111222,11111222,99999999' 
TABS,ioos:station:wmo:42051:1,2008-04-02T20:30:00Z,29.6350,-93.6417,2.0,255.7932991,62.099095,-99999.0,'11111222,11111222,99999999' 
TABS,ioos:station:wmo:42051:1,2008-04-02T21:00:00Z,29.6350,-93.6417,2.0,255.4001832,60.69989786,-99999.0,'11111222,11111222,99999999' 
TABS,ioos:station:wmo:42051:1,2008-04-02T21:30:00Z,29.6350,-93.6417,2.0,250.8982078,55.18864104,-99999.0,'11111222,11111222,99999999' 
TABS,ioos:station:wmo:42051:1,2008-04-02T22:00:00Z,29.6350,-93.6417,2.0,257.3173343,59.12243906,-99999.0,'11111222,11111222,99999999' 
TABS,ioos:station:wmo:42051:1,2008-04-02T22:30:00Z,29.6350,-93.6417,2.0,260.9257721,59.16033553,-99999.0,'11111222,11111222,99999999' 
TABS,ioos:station:wmo:42051:1,2008-04-02T23:00:00Z,29.6350,-93.6417,2.0,261.1007168,60.18444733,-99999.0,'11111222,11111222,99999999' 
TABS,ioos:station:wmo:42051:1,2008-04-02T23:30:00Z,29.6350,-93.6417,2.0,262.9142243,64.53280716,-99999.0,'11111222,11111222,99999999' 
TABS,ioos:station:wmo:42051:1,2008-04-03T00:00:00Z,29.6350,-93.6417,2.0,255.7284075,63.2829274,-99999.0,'11111222,11111222,99999999' 
TABS,ioos:station:wmo:42051:1,2008-04-03T00:30:00Z,29.6350,-93.6417,2.0,259.0447191,66.14535887,-99999.0,'11111222,11111222,99999999' 
TABS,ioos:station:wmo:42051:1,2008-04-03T01:00:00Z,29.6350,-93.6417,2.0,259.7262222,70.03276519,-99999.0,'11111222,11111222,99999999' 
TABS,ioos:station:wmo:42051:1,2008-04-03T01:30:00Z,29.6350,-93.6417,2.0,255.7324719,71.61892627,-99999.0,'11111222,11111222,99999999' 
TABS,ioos:station:wmo:42051:1,2008-04-03T02:00:00Z,29.6350,-93.6417,2.0,252.3238514,70.64515978,-99999.0,'11111222,11111222,99999999' 
TABS,ioos:station:wmo:42051:1,2008-04-03T02:30:00Z,29.6350,-93.6417,2.0,250.7709525,69.16881161,-99999.0,'11111222,11111222,99999999' 
TABS,ioos:station:wmo:42051:1,2008-04-03T03:00:00Z,29.6350,-93.6417,2.0,244.1295506,71.16138981,-99999.0,'11111222,11111222,99999999' 
TABS,ioos:station:wmo:42051:1,2008-04-03T03:30:00Z,29.6350,-93.6417,2.0,245.8424929,69.93440141,-99999.0,'11111222,11111222,99999999' 
TABS,ioos:station:wmo:42051:1,2008-04-03T04:00:00Z,29.6350,-93.6417,2.0,241.086266,67.77847593,-99999.0,'11111222,11111222,99999999' 
TABS,ioos:station:wmo:42051:1,2008-04-03T04:30:00Z,29.6350,-93.6417,2.0,242.3125973,65.31912507,-99999.0,'11111222,11111222,99999999' 
TABS,ioos:station:wmo:42051:1,2008-04-03T05:00:00Z,29.6350,-93.6417,2.0,240.9766476,61.62906863,-99999.0,'11111222,11111222,99999999' 
TABS,ioos:station:wmo:42051:1,2008-04-03T05:30:00Z,29.6350,-93.6417,2.0,238.526112,57.44057973,-99999.0,'11111222,11111222,99999999' 
TABS,ioos:station:wmo:42051:1,2008-04-03T06:00:00Z,29.6350,-93.6417,2.0,237.24814,57.06134418,-99999.0,'11111222,11111222,99999999' 
TABS,ioos:station:wmo:42051:1,2008-04-03T06:30:00Z,29.6350,-93.6417,2.0,237.4688957,56.06670491,-99999.0,'11111222,11111222,99999999' 
TABS,ioos:station:wmo:42051:1,2008-04-03T07:00:00Z,29.6350,-93.6417,2.0,236.3779758,55.76959745,-99999.0,'11111222,11111222,99999999' 
TABS,ioos:station:wmo:42051:1,2008-04-03T07:30:00Z,29.6350,-93.6417,2.0,235.0850202,53.9874328,-99999.0,'11111222,11111222,99999999' 
TABS,ioos:station:wmo:42051:1,2008-04-03T08:00:00Z,29.6350,-93.6417,2.0,233.7827127,51.77336188,-99999.0,'11111222,11111222,99999999' 
TABS,ioos:station:wmo:42051:1,2008-04-03T08:30:00Z,29.6350,-93.6417,2.0,235.5263065,49.50329787,-99999.0,'11111222,11111222,99999999' 
TABS,ioos:station:wmo:42051:1,2008-04-03T09:00:00Z,29.6350,-93.6417,2.0,237.3666691,49.16035089,-99999.0,'11111222,11111222,99999999' 
TABS,ioos:station:wmo:42051:1,2008-04-03T09:30:00Z,29.6350,-93.6417,2.0,232.800685,46.3127639,-99999.0,'11111222,11111222,99999999' 
TABS,ioos:station:wmo:42051:1,2008-04-03T10:00:00Z,29.6350,-93.6417,2.0,229.3046815,48.41785828,-99999.0,'11111222,11111222,99999999' 
TABS,ioos:station:wmo:42051:1,2008-04-03T10:30:00Z,29.6350,-93.6417,2.0,230.298306,47.16758421,-99999.0,'11111222,11111222,99999999' 
TABS,ioos:station:wmo:42051:1,2008-04-03T11:00:00Z,29.6350,-93.6417,2.0,230.9088134,46.29277481,-99999.0,'11111222,11111222,99999999' 
TABS,ioos:station:wmo:42051:1,2008-04-03T11:30:00Z,29.6350,-93.6417,2.0,232.8084073,45.64271793,-99999.0,'11111222,11111222,99999999' 
TABS,ioos:station:wmo:42051:1,2008-04-03T12:00:00Z,29.6350,-93.6417,2.0,232.5522969,45.24429798,-99999.0,'11111222,11111222,99999999' 
TABS,ioos:station:wmo:42051:1,2008-04-03T12:30:00Z,29.6350,-93.6417,2.0,232.1067884,42.12071343,-99999.0,'11111222,11111222,99999999' 
TABS,ioos:station:wmo:42051:1,2008-04-03T13:00:00Z,29.6350,-93.6417,2.0,236.7575051,41.15446513,-99999.0,'11111222,11111222,99999999' 
TABS,ioos:station:wmo:42051:1,2008-04-03T13:30:00Z,29.6350,-93.6417,2.0,233.3736145,39.4743575,-99999.0,'11111222,11111222,99999999' 
TABS,ioos:station:wmo:42051:1,2008-04-03T14:00:00Z,29.6350,-93.6417,2.0,229.762435,38.23801904,-99999.0,'11111222,11111222,99999999' 
TABS,ioos:station:wmo:42051:1,2008-04-03T14:30:00Z,29.6350,-93.6417,2.0,230.6543227,34.59027898,-99999.0,'11111222,11111222,99999999' 
TABS,ioos:station:wmo:42051:1,2008-04-03T15:00:00Z,29.6350,-93.6417,2.0,226.7410099,34.90476758,-99999.0,'11111222,11111222,99999999' 
TABS,ioos:station:wmo:42051:1,2008-04-03T15:30:00Z,29.6350,-93.6417,2.0,224.4380926,35.34996605,-99999.0,'11111222,11111222,99999999' 
TABS,ioos:station:wmo:42051:1,2008-04-03T16:00:00Z,29.6350,-93.6417,2.0,219.5618543,38.57657968,-99999.0,'11111222,11111222,99999999' 
TABS,ioos:station:wmo:42051:1,2008-04-03T16:30:00Z,29.6350,-93.6417,2.0,211.864593,35.87679612,-99999.0,'11111222,11111222,99999999' 
TABS,ioos:station:wmo:42051:1,2008-04-03T17:00:00Z,29.6350,-93.6417,2.0,199.8130075,44.96162364,-99999.0,'11111222,11111222,99999999' 
TABS,ioos:station:wmo:42051:1,2008-04-03T17:30:00Z,29.6350,-93.6417,2.0,193.0973365,43.37846701,-99999.0,'11111222,11111222,99999999' 
TABS,ioos:station:wmo:42051:1,2008-04-03T18:00:00Z,29.6350,-93.6417,2.0,193.4625741,42.65202574,-99999.0,'11111222,11111222,99999999' 
TABS,ioos:station:wmo:42051:1,2008-04-03T18:30:00Z,29.6350,-93.6417,2.0,195.8430013,44.68758329,-99999.0,'11111222,11111222,99999999' 
TABS,ioos:station:wmo:42051:1,2008-04-03T19:00:00Z,29.6350,-93.6417,2.0,189.8210374,44.08609758,-99999.0,'11111222,11111222,99999999' 
TABS,ioos:station:wmo:42051:1,2008-04-03T19:30:00Z,29.6350,-93.6417,2.0,189.635047,42.47924787,-99999.0,'11111222,11111222,99999999' 
TABS,ioos:station:wmo:42051:1,2008-04-03T20:00:00Z,29.6350,-93.6417,2.0,184.1537127,40.03517079,-99999.0,'11111222,11111222,99999999' 
TABS,ioos:station:wmo:42051:1,2008-04-03T20:30:00Z,29.6350,-93.6417,2.0,181.7777648,38.99877562,-99999.0,'11111222,11111222,99999999' 
TABS,ioos:station:wmo:42051:1,2008-04-03T21:00:00Z,29.6350,-93.6417,2.0,181.9064759,38.77146631,-99999.0,'11111222,11111222,99999999' 
TABS,ioos:station:wmo:42051:1,2008-04-03T21:30:00Z,29.6350,-93.6417,2.0,175.4559319,34.20751526,-99999.0,'11111222,11111222,99999999' 
TABS,ioos:station:wmo:42051:1,2008-04-03T22:00:00Z,29.6350,-93.6417,2.0,177.1142743,32.18080173,-99999.0,'11111222,11111222,99999999' 
TABS,ioos:station:wmo:42051:1,2008-04-03T22:30:00Z,29.6350,-93.6417,2.0,180.3310872,29.40049149,-99999.0,'11111222,11111222,99999999' 
TABS,ioos:station:wmo:42051:1,2008-04-03T23:00:00Z,29.6350,-93.6417,2.0,182.8779452,30.86893908,-99999.0,'11111222,11111222,99999999' 
TABS,ioos:station:wmo:42051:1,2008-04-03T23:30:00Z,29.6350,-93.6417,2.0,165.0482791,23.83701743,-99999.0,'11111222,11111222,99999999' 
TABS,ioos:station:wmo:42051:1,2008-04-04T00:00:00Z,29.6350,-93.6417,2.0,167.9605972,24.49885099,-99999.0,'11111222,11111222,99999999' 
TABS,ioos:station:wmo:42051:1,2008-04-04T00:30:00Z,29.6350,-93.6417,2.0,154.0342846,20.94415909,-99999.0,'11111222,11111222,99999999' 
TABS,ioos:station:wmo:42051:1,2008-04-04T01:00:00Z,29.6350,-93.6417,2.0,156.5702395,19.2142265,-99999.0,'11111222,11111222,99999999' 
TABS,ioos:station:wmo:42051:1,2008-04-04T01:30:00Z,29.6350,-93.6417,2.0,147.4538973,15.27948952,-99999.0,'11111222,11111222,99999999' 
TABS,ioos:station:wmo:42051:1,2008-04-04T02:00:00Z,29.6350,-93.6417,2.0,142.4834566,12.05276732,-99999.0,'11111222,11111222,99999999' 
TABS,ioos:station:wmo:42051:1,2008-04-04T02:30:00Z,29.6350,-93.6417,2.0,114.4400807,12.42319202,-99999.0,'11111222,11111222,99999999' 
TABS,ioos:station:wmo:42051:1,2008-04-04T03:00:00Z,29.6350,-93.6417,2.0,79.15764412,11.53593516,-99999.0,'11111222,11111222,99999999' 
TABS,ioos:station:wmo:42051:1,2008-04-04T03:30:00Z,29.6350,-93.6417,2.0,86.2865872,15.90338958,-99999.0,'11111222,11111222,99999999' 
TABS,ioos:station:wmo:42051:1,2008-04-04T04:00:00Z,29.6350,-93.6417,2.0,76.15746404,17.22012776,-99999.0,'11111222,11111222,99999999' 
TABS,ioos:station:wmo:42051:1,2008-04-04T04:30:00Z,29.6350,-93.6417,2.0,70.8405427,20.50584795,-99999.0,'11111222,11111222,99999999' 
TABS,ioos:station:wmo:42051:1,2008-04-04T05:00:00Z,29.6350,-93.6417,2.0,68.47059708,21.90858279,-99999.0,'11111222,11111222,99999999' 
TABS,ioos:station:wmo:42051:1,2008-04-04T05:30:00Z,29.6350,-93.6417,2.0,83.4487437,14.98786843,-99999.0,'11111222,11111222,99999999' 
TABS,ioos:station:wmo:42051:1,2008-04-04T06:00:00Z,29.6350,-93.6417,2.0,63.41872452,15.73297493,-99999.0,'11111222,11111222,99999999' 
TABS,ioos:station:wmo:42051:1,2008-04-04T06:30:00Z,29.6350,-93.6417,2.0,73.89040121,12.93804467,-99999.0,'11111222,11111222,99999999' 
TABS,ioos:station:wmo:42051:1,2008-04-04T07:00:00Z,29.6350,-93.6417,2.0,86.39513853,10.01982535,-99999.0,'11111222,11111222,99999999' 
TABS,ioos:station:wmo:42051:1,2008-04-04T07:30:00Z,29.6350,-93.6417,2.0,76.95999294,8.509435939,-99999.0,'11133222,11111222,99999999' 
TABS,ioos:station:wmo:42051:1,2008-04-04T08:00:00Z,29.6350,-93.6417,2.0,75.82365353,13.8827807,-99999.0,'11111222,11111222,99999999' 
TABS,ioos:station:wmo:42051:1,2008-04-04T08:30:00Z,29.6350,-93.6417,2.0,69.0462877,11.29708369,-99999.0,'11111222,11111222,99999999' 
TABS,ioos:station:wmo:42051:1,2008-04-04T09:00:00Z,29.6350,-93.6417,2.0,92.92695506,8.420985691,-99999.0,'11133222,11111222,99999999' 
TABS,ioos:station:wmo:42051:1,2008-04-04T09:30:00Z,29.6350,-93.6417,2.0,99.75935845,7.610131405,-99999.0,'11133222,11111222,99999999' 
TABS,ioos:station:wmo:42051:1,2008-04-04T10:00:00Z,29.6350,-93.6417,2.0,120.1841996,8.572292576,-99999.0,'11133222,11111222,99999999' 
TABS,ioos:station:wmo:42051:1,2008-04-04T10:30:00Z,29.6350,-93.6417,2.0,140.9133847,7.549648998,-99999.0,'11133222,11111222,99999999' 
TABS,ioos:station:wmo:42051:1,2008-04-04T11:00:00Z,29.6350,-93.6417,2.0,122.0998333,4.497577126,-99999.0,'11133222,11111222,99999999' 
TABS,ioos:station:wmo:42051:1,2008-04-04T11:30:00Z,29.6350,-93.6417,2.0,83.04239112,2.971884924,-99999.0,'11133222,11111222,99999999' 
TABS,ioos:station:wmo:42051:1,2008-04-04T12:00:00Z,29.6350,-93.6417,2.0,160.0555611,2.521210027,-99999.0,'11133222,11111222,99999999' 
TABS,ioos:station:wmo:42051:1,2008-04-04T12:30:00Z,29.6350,-93.6417,2.0,208.0149915,3.534119409,-99999.0,'11133222,11111222,99999999' 
TABS,ioos:station:wmo:42051:1,2008-04-04T13:00:00Z,29.6350,-93.6417,2.0,251.3194724,4.433553879,-99999.0,'11133222,11111222,99999999' 
TABS,ioos:station:wmo:42051:1,2008-04-04T13:30:00Z,29.6350,-93.6417,2.0,237.6943886,6.885840544,-99999.0,'11133222,11111222,99999999' 
TABS,ioos:station:wmo:42051:1,2008-04-04T14:00:00Z,29.6350,-93.6417,2.0,205.651258,7.854069009,-99999.0,'11133222,11111222,99999999' 
TABS,ioos:station:wmo:42051:1,2008-04-04T14:30:00Z,29.6350,-93.6417,2.0,230.171833,16.47194585,-99999.0,'11111222,11111222,99999999' 
TABS,ioos:station:wmo:42051:1,2008-04-04T15:00:00Z,29.6350,-93.6417,2.0,235.871475,29.01721558,-99999.0,'11111222,11111222,99999999' 
TABS,ioos:station:wmo:42051:1,2008-04-04T15:30:00Z,29.6350,-93.6417,2.0,238.7153592,34.02756677,-99999.0,'11111222,11111222,99999999' 
TABS,ioos:station:wmo:42051:1,2008-04-04T16:00:00Z,29.6350,-93.6417,2.0,244.1209744,38.07849787,-99999.0,'11111222,11111222,99999999' 